Time,TemperatureF,DewpointF,PressureIn,WindDirection,WindDirectionDegrees,WindSpeedMPH,WindSpeedGustMPH,Humidity,HourlyPrecipIn,Conditions,Clouds,dailyrainin,SolarRadiationWatts/m^2,SoftwareType,DateUTC
2013-07-10 00:01:00,70.5,65.1,29.92,NW,311,11.0,17.0,83,0.00,,---,0.32,0.00,VWS V14.01,2013-07-10 05:01:00,
2013-07-10 00:06:00,70.3,64.9,29.92,NW,312,12.0,17.0,83,0.00,,---,0.00,0.00,VWS V14.01,2013-07-10 05:06:00,
2013-07-10 00:11:00,70.0,64.6,29.92,NW,319,12.0,19.0,83,0.00,,---,0.00,0.00,VWS V14.01,2013-07-10 05:11:00,
2013-07-10 00:16:00,69.8,64.4,29.92,NNW,331,16.0,19.0,83,0.00,,---,0.00,0.00,VWS V14.01,2013-07-10 05:16:00,
2013-07-10 00:21:00,69.5,64.1,29.93,NNW,328,13.0,19.0,83,0.00,,---,0.00,0.00,VWS V14.01,2013-07-10 05:21:00,
2013-07-10 00:26:00,69.2,63.8,29.93,NNW,330,17.0,19.0,83,0.00,,---,0.00,0.00,VWS V14.01,2013-07-10 05:26:00,
2013-07-10 00:31:00,69.0,63.6,29.93,NW,321,10.0,19.0,83,0.00,,---,0.00,0.00,VWS V14.01,2013-07-10 05:31:00,
2013-07-10 00:36:00,68.8,63.4,29.94,NNW,327,11.0,17.0,83,0.00,,---,0.00,0.00,VWS V14.01,2013-07-10 05:36:00,
2013-07-10 00:41:00,68.6,63.2,29.94,NW,323,7.0,17.0,83,0.00,,---,0.00,0.00,VWS V14.01,2013-07-10 05:41:00,
2013-07-10 00:46:00,68.5,63.1,29.94,NW,317,21.0,21.0,83,0.00,,---,0.00,0.00,VWS V14.01,2013-07-10 05:46:00,
2013-07-10 00:51:00,68.3,62.9,29.94,NW,323,15.0,20.0,83,0.00,,---,0.00,0.00,VWS V14.01,2013-07-10 05:51:00,
2013-07-10 00:56:00,68.1,62.8,29.94,NW,323,14.0,20.0,83,0.00,,---,0.00,0.00,VWS V14.01,2013-07-10 05:56:00,
2013-07-10 01:01:00,67.9,62.5,29.94,NW,318,9.0,20.0,83,0.00,,---,0.00,0.00,VWS V14.01,2013-07-10 06:01:00,
2013-07-10 01:06:00,67.7,62.4,29.94,NW,322,12.0,15.0,83,0.00,,---,0.00,0.00,VWS V14.01,2013-07-10 06:06:00,
2013-07-10 01:11:00,67.6,62.6,29.94,NW,325,10.0,15.0,84,0.00,,---,0.00,0.00,VWS V14.01,2013-07-10 06:11:00,
2013-07-10 01:16:00,67.4,62.4,29.94,NW,320,10.0,15.0,84,0.00,,---,0.00,0.00,VWS V14.01,2013-07-10 06:16:00,
2013-07-10 01:21:00,67.2,62.2,29.94,NW,323,11.0,13.0,84,0.00,,---,0.00,0.00,VWS V14.01,2013-07-10 06:21:00,
2013-07-10 01:26:00,67.0,62.0,29.94,NW,319,10.0,17.0,84,0.00,,---,0.00,0.00,VWS V14.01,2013-07-10 06:26:00,
2013-07-10 01:31:00,66.8,61.8,29.94,NW,314,11.0,17.0,84,0.00,,---,0.00,0.00,VWS V14.01,2013-07-10 06:31:00,
2013-07-10 01:36:00,66.5,61.5,29.95,NW,316,8.0,13.0,84,0.00,,---,0.00,0.00,VWS V14.01,2013-07-10 06:36:00,
2013-07-10 01:41:00,66.3,61.7,29.95,NW,309,8.0,13.0,85,0.00,,---,0.00,0.00,VWS V14.01,2013-07-10 06:41:00,
2013-07-10 01:46:00,65.9,61.3,29.95,NW,311,8.0,13.0,85,0.00,,---,0.00,0.00,VWS V14.01,2013-07-10 06:46:00,
2013-07-10 01:51:00,65.6,61.0,29.95,NW,312,10.0,10.0,85,0.00,,---,0.00,0.00,VWS V14.01,2013-07-10 06:51:00,
2013-07-10 01:56:00,65.4,60.8,29.95,NNW,332,13.0,17.0,85,0.00,,---,0.00,0.00,VWS V14.01,2013-07-10 06:56:00,
2013-07-10 02:01:00,65.5,60.5,29.95,NW,317,7.0,17.0,84,0.00,,---,0.00,0.00,VWS V14.01,2013-07-10 07:01:00,
2013-07-10 02:06:00,65.5,60.5,29.95,NW,312,7.0,12.0,84,0.00,,---,0.00,0.00,VWS V14.01,2013-07-10 07:06:00,
2013-07-10 02:11:00,65.2,60.6,29.95,WNW,301,12.0,13.0,85,0.00,,---,0.00,0.00,VWS V14.01,2013-07-10 07:11:00,
2013-07-10 02:16:00,64.9,60.3,29.95,NW,315,10.0,14.0,85,0.00,,---,0.00,0.00,VWS V14.01,2013-07-10 07:16:00,
2013-07-10 02:21:00,64.8,60.5,29.95,NW,315,5.0,12.0,86,0.00,,---,0.00,0.00,VWS V14.01,2013-07-10 07:21:00,
2013-07-10 02:26:00,64.6,60.3,29.95,NW,311,12.0,14.0,86,0.00,,---,0.00,0.00,VWS V14.01,2013-07-10 07:26:00,
2013-07-10 02:31:00,64.6,60.3,29.95,NW,321,7.0,14.0,86,0.00,,---,0.00,0.00,VWS V14.01,2013-07-10 07:31:00,
2013-07-10 02:36:00,64.5,60.2,29.95,NW,317,8.0,12.0,86,0.00,,---,0.00,0.00,VWS V14.01,2013-07-10 07:36:00,
2013-07-10 02:41:00,64.4,60.1,29.96,NW,313,10.0,13.0,86,0.00,,---,0.00,0.00,VWS V14.01,2013-07-10 07:41:00,
2013-07-10 02:46:00,64.3,60.0,29.96,NW,317,9.0,13.0,86,0.00,,---,0.00,0.00,VWS V14.01,2013-07-10 07:46:00,
2013-07-10 02:51:00,64.2,59.9,29.96,NW,323,7.0,13.0,86,0.00,,---,0.00,0.00,VWS V14.01,2013-07-10 07:51:00,
2013-07-10 02:56:00,64.1,59.8,29.96,NW,324,7.0,13.0,86,0.00,,---,0.00,0.00,VWS V14.01,2013-07-10 07:56:00,
2013-07-10 03:01:00,64.0,59.7,29.96,NW,321,6.0,13.0,86,0.00,,---,0.00,0.00,VWS V14.01,2013-07-10 08:01:00,
2013-07-10 03:06:00,63.9,59.6,29.96,NW,326,9.0,11.0,86,0.00,,---,0.00,0.00,VWS V14.01,2013-07-10 08:06:00,
2013-07-10 03:11:00,63.8,59.2,29.97,NW,325,10.0,14.0,85,0.00,,---,0.00,0.00,VWS V14.01,2013-07-10 08:11:00,
2013-07-10 03:16:00,63.8,59.2,29.97,NW,323,6.0,14.0,85,0.00,,---,0.00,0.00,VWS V14.01,2013-07-10 08:16:00,
2013-07-10 03:21:00,63.7,59.1,29.97,NW,325,14.0,15.0,85,0.00,,---,0.00,0.00,VWS V14.01,2013-07-10 08:21:00,
2013-07-10 03:26:00,63.7,59.1,29.97,NNW,330,7.0,15.0,85,0.00,,---,0.00,0.00,VWS V14.01,2013-07-10 08:26:00,
2013-07-10 03:31:00,63.6,59.0,29.97,NW,323,11.0,15.0,85,0.00,,---,0.00,0.00,VWS V14.01,2013-07-10 08:31:00,
2013-07-10 03:36:00,63.4,58.8,29.97,NW,321,11.0,13.0,85,0.00,,---,0.00,0.00,VWS V14.01,2013-07-10 08:36:00,
2013-07-10 03:41:00,63.3,58.7,29.97,NW,322,11.0,14.0,85,0.00,,---,0.00,0.00,VWS V14.01,2013-07-10 08:41:00,
2013-07-10 03:46:00,63.2,59.0,29.98,NW,325,7.0,14.0,86,0.00,,---,0.00,0.00,VWS V14.01,2013-07-10 08:46:00,
2013-07-10 03:51:00,63.1,58.8,29.98,NNW,329,11.0,12.0,86,0.00,,---,0.00,0.00,VWS V14.01,2013-07-10 08:51:00,
2013-07-10 03:56:00,62.9,58.7,29.98,NW,323,12.0,14.0,86,0.00,,---,0.00,0.00,VWS V14.01,2013-07-10 08:56:00,
2013-07-10 04:01:00,62.8,58.6,29.98,NW,321,10.0,14.0,86,0.00,,---,0.00,0.00,VWS V14.01,2013-07-10 09:01:00,
2013-07-10 04:06:00,62.7,58.8,29.98,NW,321,7.0,11.0,87,0.00,,---,0.00,0.00,VWS V14.01,2013-07-10 09:06:00,
2013-07-10 04:11:00,62.7,58.8,29.98,NW,318,10.0,14.0,87,0.00,,---,0.00,0.00,VWS V14.01,2013-07-10 09:11:00,
2013-07-10 04:16:00,62.6,59.3,29.99,NW,322,11.0,14.0,89,0.00,,---,0.00,0.00,VWS V14.01,2013-07-10 09:16:00,
2013-07-10 04:21:00,62.5,58.6,29.99,NW,323,9.0,11.0,87,0.00,,---,0.00,0.00,VWS V14.01,2013-07-10 09:21:00,
2013-07-10 04:26:00,62.3,58.4,29.99,NNW,329,5.0,13.0,87,0.00,,---,0.00,0.00,VWS V14.01,2013-07-10 09:26:00,
2013-07-10 04:31:00,62.2,58.3,29.99,NW,321,13.0,13.0,87,0.00,,---,0.00,0.00,VWS V14.01,2013-07-10 09:31:00,
2013-07-10 04:36:00,62.1,58.2,30.00,NNW,330,4.0,10.0,87,0.00,,---,0.00,0.00,VWS V14.01,2013-07-10 09:36:00,
2013-07-10 04:41:00,62.0,58.1,30.00,NW,325,9.0,11.0,87,0.00,,---,0.00,0.00,VWS V14.01,2013-07-10 09:41:00,
2013-07-10 04:46:00,61.9,58.0,30.00,NW,321,8.0,11.0,87,0.00,,---,0.00,0.00,VWS V14.01,2013-07-10 09:46:00,
2013-07-10 04:51:00,61.7,57.8,30.00,NNW,328,9.0,13.0,87,0.00,,---,0.00,0.00,VWS V14.01,2013-07-10 09:51:00,
2013-07-10 04:56:00,61.6,58.0,30.00,NNW,334,12.0,13.0,88,0.00,,---,0.00,0.00,VWS V14.01,2013-07-10 09:56:00,
2013-07-10 05:01:00,61.6,58.0,30.00,NW,325,3.0,13.0,88,0.00,,---,0.00,0.00,VWS V14.01,2013-07-10 10:01:00,
2013-07-10 05:06:00,61.5,57.6,30.00,NW,320,7.0,10.0,87,0.00,,---,0.00,0.00,VWS V14.01,2013-07-10 10:06:00,
2013-07-10 05:11:00,61.4,57.5,30.01,NW,313,5.0,10.0,87,0.00,,---,0.00,0.00,VWS V14.01,2013-07-10 10:11:00,
2013-07-10 05:16:00,61.2,57.3,30.01,NW,313,2.0,10.0,87,0.00,,---,0.00,0.00,VWS V14.01,2013-07-10 10:16:00,
2013-07-10 05:21:00,60.9,57.0,30.01,NW,311,3.0,6.0,87,0.00,,---,0.00,0.00,VWS V14.01,2013-07-10 10:21:00,
2013-07-10 05:26:00,60.7,56.8,30.01,NW,304,2.0,6.0,87,0.00,,---,0.00,0.00,VWS V14.01,2013-07-10 10:26:00,
2013-07-10 05:31:00,60.4,56.8,30.01,WNW,303,3.0,6.0,88,0.00,,---,0.00,0.00,VWS V14.01,2013-07-10 10:31:00,
2013-07-10 05:36:00,60.1,56.5,30.01,WNW,303,4.0,4.0,88,0.00,,---,0.00,0.00,VWS V14.01,2013-07-10 10:36:00,
2013-07-10 05:41:00,59.9,56.7,30.01,WNW,303,2.0,4.0,89,0.00,,---,0.00,0.00,VWS V14.01,2013-07-10 10:41:00,
2013-07-10 05:46:00,59.6,56.4,30.01,WNW,303,2.0,4.0,89,0.00,,---,0.00,0.00,VWS V14.01,2013-07-10 10:46:00,
2013-07-10 05:51:00,59.4,56.2,30.01,WNW,303,3.0,4.0,89,0.00,,---,0.00,5.00,VWS V14.01,2013-07-10 10:51:00,
2013-07-10 05:56:00,59.1,56.2,30.01,WNW,303,1.0,5.0,90,0.00,,---,0.00,9.00,VWS V14.01,2013-07-10 10:56:00,
2013-07-10 06:01:00,59.0,56.1,30.01,WNW,303,2.0,5.0,90,0.00,,---,0.00,12.00,VWS V14.01,2013-07-10 11:01:00,
2013-07-10 06:06:00,59.0,56.1,30.02,WNW,303,2.0,4.0,90,0.00,,---,0.00,16.00,VWS V14.01,2013-07-10 11:06:00,
2013-07-10 06:11:00,59.0,56.4,30.02,WNW,303,2.0,4.0,91,0.00,,---,0.00,21.00,VWS V14.01,2013-07-10 11:11:00,
2013-07-10 06:16:00,59.0,56.4,30.02,WNW,303,3.0,4.0,91,0.00,,---,0.00,28.00,VWS V14.01,2013-07-10 11:16:00,
2013-07-10 06:21:00,58.9,56.3,30.02,WNW,303,2.0,3.0,91,0.00,,---,0.00,35.00,VWS V14.01,2013-07-10 11:21:00,
2013-07-10 06:26:00,58.9,56.3,30.02,WNW,303,2.0,3.0,91,0.00,,---,0.00,46.00,VWS V14.01,2013-07-10 11:26:00,
2013-07-10 06:31:00,58.8,56.5,30.02,WNW,302,2.0,5.0,92,0.00,,---,0.00,56.00,VWS V14.01,2013-07-10 11:31:00,
2013-07-10 06:36:00,59.0,56.7,30.02,WNW,299,4.0,5.0,92,0.00,,---,0.00,65.00,VWS V14.01,2013-07-10 11:36:00,
2013-07-10 06:41:00,59.0,56.7,30.02,WNW,301,5.0,7.0,92,0.00,,---,0.00,77.00,VWS V14.01,2013-07-10 11:41:00,
2013-07-10 06:46:00,59.0,56.7,30.02,WNW,300,3.0,7.0,92,0.00,,---,0.00,88.00,VWS V14.01,2013-07-10 11:46:00,
2013-07-10 06:51:00,59.1,56.8,30.03,WNW,301,2.0,6.0,92,0.00,,---,0.00,102.00,VWS V14.01,2013-07-10 11:51:00,
2013-07-10 06:56:00,59.3,57.0,30.03,WNW,301,2.0,6.0,92,0.00,,---,0.00,113.00,VWS V14.01,2013-07-10 11:56:00,
2013-07-10 07:01:00,59.5,57.2,30.03,WNW,301,4.0,6.0,92,0.00,,---,0.00,128.00,VWS V14.01,2013-07-10 12:01:00,
2013-07-10 07:06:00,59.6,57.3,30.03,WNW,300,3.0,5.0,92,0.00,,---,0.00,141.00,VWS V14.01,2013-07-10 12:06:00,
2013-07-10 07:11:00,59.8,57.5,30.03,WNW,299,3.0,6.0,92,0.00,,---,0.00,155.00,VWS V14.01,2013-07-10 12:11:00,
2013-07-10 07:16:00,60.0,57.4,30.03,WNW,303,5.0,8.0,91,0.00,,---,0.00,165.00,VWS V14.01,2013-07-10 12:16:00,
2013-07-10 07:21:00,60.3,57.7,30.03,WNW,301,7.0,7.0,91,0.00,,---,0.00,178.00,VWS V14.01,2013-07-10 12:21:00,
2013-07-10 07:26:00,60.5,57.9,30.04,WNW,297,7.0,10.0,91,0.00,,---,0.00,192.00,VWS V14.01,2013-07-10 12:26:00,
2013-07-10 07:31:00,60.7,58.1,30.04,WNW,299,9.0,11.0,91,0.00,,---,0.00,206.00,VWS V14.01,2013-07-10 12:31:00,
2013-07-10 07:36:00,61.0,58.4,30.03,NW,315,11.0,11.0,91,0.00,,---,0.00,221.00,VWS V14.01,2013-07-10 12:36:00,
2013-07-10 07:41:00,61.3,58.3,30.04,NW,306,9.0,11.0,90,0.00,,---,0.00,237.00,VWS V14.01,2013-07-10 12:41:00,
2013-07-10 07:46:00,61.6,58.6,30.04,NW,314,9.0,11.0,90,0.00,,---,0.00,253.00,VWS V14.01,2013-07-10 12:46:00,
2013-07-10 07:51:00,61.8,58.5,30.04,WNW,296,9.0,11.0,89,0.00,,---,0.00,267.00,VWS V14.01,2013-07-10 12:51:00,
2013-07-10 07:56:00,62.1,58.8,30.04,WNW,297,9.0,12.0,89,0.00,,---,0.00,283.00,VWS V14.01,2013-07-10 12:56:00,
2013-07-10 08:01:00,62.2,58.6,30.04,NW,307,11.0,13.0,88,0.00,,---,0.00,299.00,VWS V14.01,2013-07-10 13:01:00,
2013-07-10 08:06:00,62.4,58.8,30.04,NW,316,11.0,14.0,88,0.00,,---,0.00,315.00,VWS V14.01,2013-07-10 13:06:00,
2013-07-10 08:11:00,62.6,58.7,30.04,NW,325,10.0,14.0,87,0.00,,---,0.00,330.00,VWS V14.01,2013-07-10 13:11:00,
2013-07-10 08:16:00,62.8,58.9,30.04,NW,319,11.0,14.0,87,0.00,,---,0.00,346.00,VWS V14.01,2013-07-10 13:16:00,
2013-07-10 08:21:00,63.1,59.2,30.04,NW,313,6.0,11.0,87,0.00,,---,0.00,360.00,VWS V14.01,2013-07-10 13:21:00,
2013-07-10 08:26:00,63.4,59.2,30.04,NW,317,9.0,13.0,86,0.00,,---,0.00,378.00,VWS V14.01,2013-07-10 13:26:00,
2013-07-10 08:31:00,63.6,59.0,30.05,NW,320,13.0,16.0,85,0.00,,---,0.00,392.00,VWS V14.01,2013-07-10 13:31:00,
2013-07-10 08:36:00,63.9,59.0,30.05,NW,324,12.0,13.0,84,0.00,,---,0.00,408.00,VWS V14.01,2013-07-10 13:36:00,
2013-07-10 08:41:00,64.2,58.9,30.04,NW,318,10.0,15.0,83,0.00,,---,0.00,418.00,VWS V14.01,2013-07-10 13:41:00,
2013-07-10 08:46:00,64.5,59.2,30.05,NW,310,13.0,15.0,83,0.00,,---,0.00,438.00,VWS V14.01,2013-07-10 13:46:00,
2013-07-10 08:51:00,64.7,59.1,30.05,NW,321,11.0,12.0,82,0.00,,---,0.00,455.00,VWS V14.01,2013-07-10 13:51:00,
2013-07-10 08:56:00,64.9,58.9,30.05,NW,309,7.0,14.0,81,0.00,,---,0.00,473.00,VWS V14.01,2013-07-10 13:56:00,
2013-07-10 09:01:00,65.2,58.9,30.04,NW,304,11.0,14.0,80,0.00,,---,0.00,480.00,VWS V14.01,2013-07-10 14:01:00,
2013-07-10 09:06:00,65.5,59.2,30.04,NW,316,12.0,13.0,80,0.00,,---,0.00,499.00,VWS V14.01,2013-07-10 14:06:00,
2013-07-10 09:11:00,65.8,59.1,30.05,NNW,330,9.0,14.0,79,0.00,,---,0.00,513.00,VWS V14.01,2013-07-10 14:11:00,
2013-07-10 09:16:00,66.1,59.0,30.05,NW,321,10.0,14.0,78,0.00,,---,0.00,531.00,VWS V14.01,2013-07-10 14:16:00,
2013-07-10 09:21:00,66.3,58.9,30.05,NW,309,10.0,14.0,77,0.00,,---,0.00,545.00,VWS V14.01,2013-07-10 14:21:00,
2013-07-10 09:26:00,66.6,58.4,30.05,NW,313,12.0,16.0,75,0.00,,---,0.00,561.00,VWS V14.01,2013-07-10 14:26:00,
2013-07-10 09:31:00,66.8,58.3,30.05,NW,322,12.0,16.0,74,0.00,,---,0.00,578.00,VWS V14.01,2013-07-10 14:31:00,
2013-07-10 09:36:00,67.0,58.5,30.04,NW,319,9.0,16.0,74,0.00,,---,0.00,596.00,VWS V14.01,2013-07-10 14:36:00,
2013-07-10 09:41:00,67.2,58.3,30.04,NW,306,11.0,16.0,73,0.00,,---,0.00,608.00,VWS V14.01,2013-07-10 14:41:00,
2013-07-10 09:46:00,67.4,58.5,30.05,NNW,327,12.0,17.0,73,0.00,,---,0.00,621.00,VWS V14.01,2013-07-10 14:46:00,
2013-07-10 09:51:00,67.6,58.7,30.04,NW,319,7.0,13.0,73,0.00,,---,0.00,631.00,VWS V14.01,2013-07-10 14:51:00,
2013-07-10 09:56:00,68.0,59.0,30.04,NW,326,11.0,17.0,73,0.00,,---,0.00,649.00,VWS V14.01,2013-07-10 14:56:00,
2013-07-10 10:01:00,68.0,58.7,30.04,NNW,345,10.0,17.0,72,0.00,,---,0.00,661.00,VWS V14.01,2013-07-10 15:01:00,
2013-07-10 10:06:00,68.3,58.9,30.04,NW,326,13.0,15.0,72,0.00,,---,0.00,673.00,VWS V14.01,2013-07-10 15:06:00,
2013-07-10 10:11:00,68.6,58.8,30.04,NW,307,12.0,15.0,71,0.00,,---,0.00,689.00,VWS V14.01,2013-07-10 15:11:00,
2013-07-10 10:16:00,69.0,58.8,30.04,NNW,333,11.0,16.0,70,0.00,,---,0.00,701.00,VWS V14.01,2013-07-10 15:16:00,
2013-07-10 10:21:00,69.1,58.5,30.05,NNW,344,12.0,14.0,69,0.00,,---,0.00,710.00,VWS V14.01,2013-07-10 15:21:00,
2013-07-10 10:26:00,69.4,58.8,30.04,NNW,342,17.0,17.0,69,0.00,,---,0.00,724.00,VWS V14.01,2013-07-10 15:26:00,
2013-07-10 10:31:00,69.4,59.2,30.04,NW,322,12.0,17.0,70,0.00,,---,0.00,738.00,VWS V14.01,2013-07-10 15:31:00,
2013-07-10 10:36:00,69.8,60.0,30.04,NNW,335,11.0,16.0,71,0.00,,---,0.00,745.00,VWS V14.01,2013-07-10 15:36:00,
2013-07-10 10:41:00,70.2,60.4,30.04,NW,313,14.0,16.0,71,0.00,,---,0.00,758.00,VWS V14.01,2013-07-10 15:41:00,
2013-07-10 10:46:00,70.5,58.2,30.04,NNW,346,11.0,16.0,65,0.00,,---,0.00,772.00,VWS V14.01,2013-07-10 15:46:00,
2013-07-10 10:51:00,70.5,59.0,30.03,NW,323,14.0,15.0,67,0.00,,---,0.00,779.00,VWS V14.01,2013-07-10 15:51:00,
2013-07-10 10:56:00,70.5,58.6,30.03,NW,323,12.0,15.0,66,0.00,,---,0.00,795.00,VWS V14.01,2013-07-10 15:56:00,
2013-07-10 11:01:00,70.7,58.8,30.03,NNW,344,11.0,16.0,66,0.00,,---,0.00,802.00,VWS V14.01,2013-07-10 16:01:00,
2013-07-10 11:06:00,71.0,59.9,30.03,NNW,330,11.0,16.0,68,0.00,,---,0.00,814.00,VWS V14.01,2013-07-10 16:06:00,
2013-07-10 11:11:00,71.2,59.3,30.03,NNW,333,9.0,19.0,66,0.00,,---,0.00,819.00,VWS V14.01,2013-07-10 16:11:00,
2013-07-10 11:16:00,71.6,60.1,30.03,NW,311,13.0,19.0,67,0.00,,---,0.00,828.00,VWS V14.01,2013-07-10 16:16:00,
2013-07-10 11:22:00,71.8,58.5,30.03,NNW,344,14.0,18.0,63,0.00,,---,0.00,840.00,VWS V14.01,2013-07-10 16:22:00,
2013-07-10 11:27:00,72.0,59.6,30.03,NNW,333,10.0,18.0,65,0.00,,---,0.00,851.00,VWS V14.01,2013-07-10 16:27:00,
2013-07-10 11:31:00,72.2,58.9,30.03,NW,318,12.0,18.0,63,0.00,,---,0.00,856.00,VWS V14.01,2013-07-10 16:31:00,
2013-07-10 11:36:00,72.6,58.4,30.03,NW,323,13.0,16.0,61,0.00,,---,0.00,870.00,VWS V14.01,2013-07-10 16:36:00,
2013-07-10 11:41:00,72.8,58.1,30.03,NNW,336,12.0,16.0,60,0.00,,---,0.00,882.00,VWS V14.01,2013-07-10 16:41:00,
2013-07-10 11:47:00,73.0,58.3,30.03,NNW,336,11.0,16.0,60,0.00,,---,0.00,884.00,VWS V14.01,2013-07-10 16:47:00,
2013-07-10 11:52:00,73.0,59.7,30.03,North,349,7.0,14.0,63,0.00,,---,0.00,889.00,VWS V14.01,2013-07-10 16:52:00,
2013-07-10 11:57:00,73.3,60.0,30.03,NNW,329,16.0,18.0,63,0.00,,---,0.00,900.00,VWS V14.01,2013-07-10 16:57:00,
2013-07-10 12:02:00,73.5,59.2,30.04,NNW,341,14.0,18.0,61,0.00,,---,0.00,900.00,VWS V14.01,2013-07-10 17:02:00,
2013-07-10 12:07:00,73.8,59.5,30.03,NNW,331,10.0,14.0,61,0.00,,---,0.00,909.00,VWS V14.01,2013-07-10 17:07:00,
2013-07-10 12:12:00,73.8,58.6,30.03,NNW,348,8.0,14.0,59,0.00,,---,0.00,909.00,VWS V14.01,2013-07-10 17:12:00,
2013-07-10 12:17:00,73.9,59.6,30.03,NNW,334,11.0,17.0,61,0.00,,---,0.00,923.00,VWS V14.01,2013-07-10 17:17:00,
2013-07-10 12:22:00,74.1,58.9,30.03,NNW,333,15.0,18.0,59,0.00,,---,0.00,923.00,VWS V14.01,2013-07-10 17:22:00,
2013-07-10 12:27:00,74.1,58.4,30.03,North,5,11.0,18.0,58,0.00,,---,0.00,930.00,VWS V14.01,2013-07-10 17:27:00,
2013-07-10 12:32:00,74.2,58.5,30.03,NNW,336,12.0,19.0,58,0.00,,---,0.00,940.00,VWS V14.01,2013-07-10 17:32:00,
2013-07-10 12:37:00,74.1,57.9,30.03,NNW,342,4.0,16.0,57,0.00,,---,0.00,947.00,VWS V14.01,2013-07-10 17:37:00,
2013-07-10 12:42:00,74.3,59.1,30.03,NNW,338,15.0,16.0,59,0.00,,---,0.00,949.00,VWS V14.01,2013-07-10 17:42:00,
2013-07-10 12:47:00,74.6,57.9,30.03,NNW,334,14.0,17.0,56,0.00,,---,0.00,953.00,VWS V14.01,2013-07-10 17:47:00,
2013-07-10 12:52:00,74.8,58.1,30.03,NNW,345,11.0,15.0,56,0.00,,---,0.00,953.00,VWS V14.01,2013-07-10 17:52:00,
2013-07-10 12:57:00,75.0,58.3,30.03,NNW,346,12.0,16.0,56,0.00,,---,0.00,946.00,VWS V14.01,2013-07-10 17:57:00,
2013-07-10 13:02:00,75.0,60.2,30.03,NNW,342,12.0,16.0,60,0.00,,---,0.00,951.00,VWS V14.01,2013-07-10 18:02:00,
2013-07-10 13:07:00,75.1,60.8,30.03,NNW,342,10.0,13.0,61,0.00,,---,0.00,944.00,VWS V14.01,2013-07-10 18:07:00,
2013-07-10 13:12:00,75.4,60.1,30.03,NW,311,12.0,14.0,59,0.00,,---,0.00,956.00,VWS V14.01,2013-07-10 18:12:00,
2013-07-10 13:17:00,75.6,61.2,30.03,North,355,5.0,14.0,61,0.00,,---,0.00,976.00,VWS V14.01,2013-07-10 18:17:00,
2013-07-10 13:22:00,75.7,61.3,30.02,North,9,9.0,11.0,61,0.00,,---,0.00,954.00,VWS V14.01,2013-07-10 18:22:00,
2013-07-10 13:27:00,75.7,58.4,30.02,NNW,348,11.0,17.0,55,0.00,,---,0.00,958.00,VWS V14.01,2013-07-10 18:27:00,
2013-07-10 13:32:00,75.7,60.8,30.02,NW,319,11.0,17.0,60,0.00,,---,0.00,949.00,VWS V14.01,2013-07-10 18:32:00,
2013-07-10 13:37:00,75.8,56.9,30.02,NNW,337,14.0,16.0,52,0.00,,---,0.00,951.00,VWS V14.01,2013-07-10 18:37:00,
2013-07-10 13:42:00,75.8,60.5,30.02,North,360,6.0,16.0,59,0.00,,---,0.00,928.00,VWS V14.01,2013-07-10 18:42:00,
2013-07-10 13:47:00,76.2,60.8,30.01,NNW,340,11.0,16.0,59,0.00,,---,0.00,969.00,VWS V14.01,2013-07-10 18:47:00,
2013-07-10 13:52:00,75.9,59.6,30.02,North,10,11.0,13.0,57,0.00,,---,0.00,940.00,VWS V14.01,2013-07-10 18:52:00,
2013-07-10 13:57:00,76.0,59.2,30.02,NNW,333,7.0,14.0,56,0.00,,---,0.00,942.00,VWS V14.01,2013-07-10 18:57:00,
2013-07-10 14:02:00,76.1,59.3,30.02,NNW,344,11.0,14.0,56,0.00,,---,0.00,947.00,VWS V14.01,2013-07-10 19:02:00,
2013-07-10 14:07:00,76.2,59.9,30.02,NNW,328,15.0,15.0,57,0.00,,---,0.00,942.00,VWS V14.01,2013-07-10 19:07:00,
2013-07-10 14:12:00,76.3,59.0,30.02,NW,318,4.0,17.0,55,0.00,,---,0.00,963.00,VWS V14.01,2013-07-10 19:12:00,
2013-07-10 14:17:00,76.4,60.1,30.02,NW,326,15.0,17.0,57,0.00,,---,0.00,951.00,VWS V14.01,2013-07-10 19:17:00,
2013-07-10 14:22:00,76.8,59.4,30.02,North,349,9.0,16.0,55,0.00,,---,0.00,942.00,VWS V14.01,2013-07-10 19:22:00,
2013-07-10 14:27:00,76.9,59.0,30.01,NNW,346,10.0,16.0,54,0.00,,---,0.00,919.00,VWS V14.01,2013-07-10 19:27:00,
2013-07-10 14:32:00,76.9,60.5,30.01,NW,323,8.0,16.0,57,0.00,,---,0.00,914.00,VWS V14.01,2013-07-10 19:32:00,
2013-07-10 14:37:00,76.9,58.5,30.02,NNW,342,8.0,12.0,53,0.00,,---,0.00,923.00,VWS V14.01,2013-07-10 19:37:00,
2013-07-10 14:42:00,76.8,58.9,30.02,NNW,336,10.0,16.0,54,0.00,,---,0.00,909.00,VWS V14.01,2013-07-10 19:42:00,
2013-07-10 14:47:00,76.9,59.5,30.02,NW,320,6.0,16.0,55,0.00,,---,0.00,926.00,VWS V14.01,2013-07-10 19:47:00,
2013-07-10 14:52:00,77.0,59.6,30.02,NW,319,11.0,15.0,55,0.00,,---,0.00,963.00,VWS V14.01,2013-07-10 19:52:00,
2013-07-10 14:57:00,77.3,60.4,30.02,North,360,3.0,15.0,56,0.00,,---,0.00,993.00,VWS V14.01,2013-07-10 19:57:00,
2013-07-10 15:02:00,77.3,59.9,30.02,North,9,7.0,15.0,55,0.00,,---,0.00,965.00,VWS V14.01,2013-07-10 20:02:00,
2013-07-10 15:07:00,77.4,60.0,30.02,NNW,340,11.0,14.0,55,0.00,,---,0.00,338.00,VWS V14.01,2013-07-10 20:07:00,
2013-07-10 15:12:00,77.3,58.3,30.02,NNW,330,10.0,14.0,52,0.00,,---,0.00,895.00,VWS V14.01,2013-07-10 20:12:00,
2013-07-10 15:17:00,77.2,59.3,30.02,North,355,5.0,14.0,54,0.00,,---,0.00,867.00,VWS V14.01,2013-07-10 20:17:00,
2013-07-10 15:22:00,77.3,59.4,30.02,NNW,343,7.0,11.0,54,0.00,,---,0.00,248.00,VWS V14.01,2013-07-10 20:22:00,
2013-07-10 15:27:00,77.5,61.1,30.01,NNW,344,6.0,11.0,57,0.00,,---,0.00,895.00,VWS V14.01,2013-07-10 20:27:00,
2013-07-10 15:32:00,77.9,61.5,30.02,WNW,300,8.0,11.0,57,0.00,,---,0.00,842.00,VWS V14.01,2013-07-10 20:32:00,
2013-07-10 15:37:00,78.0,59.5,30.01,NW,309,13.0,15.0,53,0.00,,---,0.00,861.00,VWS V14.01,2013-07-10 20:37:00,
2013-07-10 15:42:00,78.1,58.5,30.01,NW,304,5.0,15.0,51,0.00,,---,0.00,835.00,VWS V14.01,2013-07-10 20:42:00,
2013-07-10 15:47:00,78.1,60.1,30.01,NW,306,5.0,15.0,54,0.00,,---,0.00,856.00,VWS V14.01,2013-07-10 20:47:00,
2013-07-10 15:52:00,78.3,59.8,30.02,NNW,329,10.0,14.0,53,0.00,,---,0.00,838.00,VWS V14.01,2013-07-10 20:52:00,
2013-07-10 15:57:00,78.3,59.8,30.01,NW,304,6.0,14.0,53,0.00,,---,0.00,183.00,VWS V14.01,2013-07-10 20:57:00,
2013-07-10 16:02:00,78.1,60.1,30.01,NW,312,12.0,15.0,54,0.00,,---,0.00,791.00,VWS V14.01,2013-07-10 21:02:00,
2013-07-10 16:07:00,78.0,58.4,30.01,NNW,342,6.0,11.0,51,0.00,,---,0.00,770.00,VWS V14.01,2013-07-10 21:07:00,
2013-07-10 16:12:00,78.2,58.6,30.01,North,355,4.0,11.0,51,0.00,,---,0.00,737.00,VWS V14.01,2013-07-10 21:12:00,
2013-07-10 16:17:00,78.3,59.8,30.01,NNW,346,10.0,11.0,53,0.00,,---,0.00,740.00,VWS V14.01,2013-07-10 21:17:00,
2013-07-10 16:22:00,78.4,58.2,30.01,NNW,340,6.0,13.0,50,0.00,,---,0.00,733.00,VWS V14.01,2013-07-10 21:22:00,
2013-07-10 16:27:00,78.3,59.2,30.00,NNW,340,5.0,13.0,52,0.00,,---,0.00,712.00,VWS V14.01,2013-07-10 21:27:00,
2013-07-10 16:32:00,78.4,59.3,30.00,NNW,334,9.0,13.0,52,0.00,,---,0.00,701.00,VWS V14.01,2013-07-10 21:32:00,
2013-07-10 16:37:00,78.5,58.3,30.00,NNE,15,7.0,10.0,50,0.00,,---,0.00,686.00,VWS V14.01,2013-07-10 21:37:00,
2013-07-10 16:42:00,78.4,58.8,29.99,NNE,23,0.0,10.0,51,0.00,,---,0.00,664.00,VWS V14.01,2013-07-10 21:42:00,
2013-07-10 16:47:00,78.6,57.9,29.99,NNW,338,11.0,11.0,49,0.00,,---,0.00,657.00,VWS V14.01,2013-07-10 21:47:00,
2013-07-10 16:52:00,78.7,58.0,29.99,West,281,11.0,12.0,49,0.00,,---,0.00,652.00,VWS V14.01,2013-07-10 21:52:00,
2013-07-10 16:57:00,78.6,59.0,29.99,NW,318,5.0,16.0,51,0.00,,---,0.00,626.00,VWS V14.01,2013-07-10 21:57:00,
2013-07-10 17:02:00,78.6,59.0,29.99,NNW,346,5.0,16.0,51,0.00,,---,0.00,622.00,VWS V14.01,2013-07-10 22:02:00,
2013-07-10 17:07:00,78.7,57.4,29.99,NNW,336,8.0,11.0,48,0.00,,---,0.00,608.00,VWS V14.01,2013-07-10 22:07:00,
2013-07-10 17:12:00,78.5,57.2,29.99,NNW,341,5.0,11.0,48,0.00,,---,0.00,589.00,VWS V14.01,2013-07-10 22:12:00,
2013-07-10 17:17:00,78.5,57.8,29.99,North,360,3.0,11.0,49,0.00,,---,0.00,568.00,VWS V14.01,2013-07-10 22:17:00,
2013-07-10 17:22:00,78.6,58.4,29.99,NW,325,5.0,9.0,50,0.00,,---,0.00,557.00,VWS V14.01,2013-07-10 22:22:00,
2013-07-10 17:27:00,78.6,59.5,29.99,NW,317,6.0,10.0,52,0.00,,---,0.00,548.00,VWS V14.01,2013-07-10 22:27:00,
2013-07-10 17:32:00,78.6,57.9,29.99,NW,304,4.0,11.0,49,0.00,,---,0.00,529.00,VWS V14.01,2013-07-10 22:32:00,
2013-07-10 17:37:00,78.6,57.3,29.99,NNW,338,5.0,7.0,48,0.00,,---,0.00,512.00,VWS V14.01,2013-07-10 22:37:00,
2013-07-10 17:42:00,78.7,56.8,29.99,NNW,338,2.0,7.0,47,0.00,,---,0.00,504.00,VWS V14.01,2013-07-10 22:42:00,
2013-07-10 17:47:00,78.7,58.0,29.99,NNW,338,0.0,7.0,49,0.00,,---,0.00,482.00,VWS V14.01,2013-07-10 22:47:00,
2013-07-10 17:52:00,78.8,58.6,29.99,NNW,339,9.0,11.0,50,0.00,,---,0.00,179.00,VWS V14.01,2013-07-10 22:52:00,
2013-07-10 17:57:00,78.7,59.1,29.99,NNW,348,3.0,11.0,51,0.00,,---,0.00,450.00,VWS V14.01,2013-07-10 22:57:00,
2013-07-10 18:02:00,78.7,58.5,29.98,NW,326,9.0,11.0,50,0.00,,---,0.00,432.00,VWS V14.01,2013-07-10 23:02:00,
2013-07-10 18:07:00,78.6,57.3,29.98,NNW,341,6.0,11.0,48,0.00,,---,0.00,408.00,VWS V14.01,2013-07-10 23:07:00,
2013-07-10 18:12:00,78.5,56.6,29.98,NNW,337,4.0,11.0,47,0.00,,---,0.00,396.00,VWS V14.01,2013-07-10 23:12:00,
2013-07-10 18:17:00,78.5,58.3,29.98,NW,323,8.0,11.0,50,0.00,,---,0.00,381.00,VWS V14.01,2013-07-10 23:17:00,
2013-07-10 18:22:00,78.3,57.0,29.98,NNW,341,6.0,7.0,48,0.00,,---,0.00,352.00,VWS V14.01,2013-07-10 23:22:00,
2013-07-10 18:27:00,78.3,58.7,29.98,NNW,341,2.0,7.0,51,0.00,,---,0.00,350.00,VWS V14.01,2013-07-10 23:27:00,
2013-07-10 18:32:00,78.4,59.3,29.98,NNW,342,3.0,7.0,52,0.00,,---,0.00,336.00,VWS V14.01,2013-07-10 23:32:00,
2013-07-10 18:37:00,78.4,58.2,29.98,NW,318,4.0,7.0,50,0.00,,---,0.00,322.00,VWS V14.01,2013-07-10 23:37:00,
2013-07-10 18:42:00,78.3,58.7,29.98,NW,316,4.0,7.0,51,0.00,,---,0.00,301.00,VWS V14.01,2013-07-10 23:42:00,
2013-07-10 18:47:00,78.2,57.5,29.98,NW,323,3.0,7.0,49,0.00,,---,0.00,288.00,VWS V14.01,2013-07-10 23:47:00,
2013-07-10 18:52:00,78.2,59.7,29.98,NW,322,2.0,5.0,53,0.00,,---,0.00,276.00,VWS V14.01,2013-07-10 23:52:00,
2013-07-10 18:57:00,78.2,60.7,29.98,NW,323,3.0,5.0,55,0.00,,---,0.00,260.00,VWS V14.01,2013-07-10 23:57:00,
2013-07-10 19:02:00,78.1,60.6,29.98,NW,323,2.0,6.0,55,0.00,,---,0.00,239.00,VWS V14.01,2013-07-11 00:02:00,
2013-07-10 19:07:00,77.9,60.5,29.98,NW,323,3.0,5.0,55,0.00,,---,0.00,223.00,VWS V14.01,2013-07-11 00:07:00,
2013-07-10 19:12:00,77.6,60.2,29.98,NW,323,3.0,5.0,55,0.00,,---,0.00,207.00,VWS V14.01,2013-07-11 00:12:00,
2013-07-10 19:17:00,77.6,59.7,29.98,NW,323,1.0,5.0,54,0.00,,---,0.00,195.00,VWS V14.01,2013-07-11 00:17:00,
2013-07-10 19:22:00,77.5,60.6,29.98,NW,322,1.0,2.0,56,0.00,,---,0.00,174.00,VWS V14.01,2013-07-11 00:22:00,
2013-07-10 19:27:00,77.4,60.5,29.98,NW,323,0.0,2.0,56,0.00,,---,0.00,158.00,VWS V14.01,2013-07-11 00:27:00,
2013-07-10 19:32:00,77.3,60.9,29.98,NW,323,1.0,2.0,57,0.00,,---,0.00,146.00,VWS V14.01,2013-07-11 00:32:00,
2013-07-10 19:37:00,77.3,61.4,29.98,NW,323,1.0,2.0,58,0.00,,---,0.00,132.00,VWS V14.01,2013-07-11 00:37:00,
2013-07-10 19:42:00,77.3,61.9,29.98,NW,323,0.0,2.0,59,0.00,,---,0.00,116.00,VWS V14.01,2013-07-11 00:42:00,
2013-07-10 19:47:00,77.2,60.8,29.98,NW,323,1.0,5.0,57,0.00,,---,0.00,104.00,VWS V14.01,2013-07-11 00:47:00,
2013-07-10 19:52:00,76.9,62.0,29.98,NW,323,0.0,3.0,60,0.00,,---,0.00,90.00,VWS V14.01,2013-07-11 00:52:00,
2013-07-10 19:57:00,76.6,62.6,29.97,NW,323,0.0,3.0,62,0.00,,---,0.00,81.00,VWS V14.01,2013-07-11 00:57:00,
2013-07-10 20:02:00,76.1,62.2,29.98,NW,323,0.0,3.0,62,0.00,,---,0.00,69.00,VWS V14.01,2013-07-11 01:02:00,
2013-07-10 20:07:00,75.7,62.7,29.97,NW,323,0.0,0.0,64,0.00,,---,0.00,60.00,VWS V14.01,2013-07-11 01:07:00,
2013-07-10 20:12:00,75.3,62.3,29.97,NW,323,0.0,0.0,64,0.00,,---,0.00,51.00,VWS V14.01,2013-07-11 01:12:00,
2013-07-10 20:17:00,75.0,61.6,29.97,NW,323,0.0,0.0,63,0.00,,---,0.00,42.00,VWS V14.01,2013-07-11 01:17:00,
2013-07-10 20:22:00,74.7,60.4,29.97,NW,323,0.0,0.0,61,0.00,,---,0.00,35.00,VWS V14.01,2013-07-11 01:22:00,
2013-07-10 20:27:00,74.4,60.5,29.97,NW,323,0.0,0.0,62,0.00,,---,0.00,30.00,VWS V14.01,2013-07-11 01:27:00,
2013-07-10 20:32:00,74.2,59.0,29.97,NW,323,0.0,0.0,59,0.00,,---,0.00,25.00,VWS V14.01,2013-07-11 01:32:00,
2013-07-10 20:37:00,74.1,60.3,29.97,NW,323,0.0,0.0,62,0.00,,---,0.00,21.00,VWS V14.01,2013-07-11 01:37:00,
2013-07-10 20:42:00,73.9,60.5,29.97,NW,323,0.0,0.0,63,0.00,,---,0.00,16.00,VWS V14.01,2013-07-11 01:42:00,
2013-07-10 20:47:00,73.7,60.3,29.97,NW,323,0.0,0.0,63,0.00,,---,0.00,12.00,VWS V14.01,2013-07-11 01:47:00,
2013-07-10 20:52:00,73.4,59.6,29.97,NW,323,0.0,0.0,62,0.00,,---,0.00,9.00,VWS V14.01,2013-07-11 01:52:00,
2013-07-10 20:57:00,73.1,61.5,29.97,NW,323,0.0,0.0,67,0.00,,---,0.00,7.00,VWS V14.01,2013-07-11 01:57:00,
2013-07-10 21:02:00,72.6,60.6,29.98,NW,323,0.0,0.0,66,0.00,,---,0.00,0.00,VWS V14.01,2013-07-11 02:02:00,
2013-07-10 21:07:00,72.2,60.7,29.98,NW,323,0.0,0.0,67,0.00,,---,0.00,0.00,VWS V14.01,2013-07-11 02:07:00,
2013-07-10 21:12:00,71.8,60.3,29.98,NW,323,0.0,0.0,67,0.00,,---,0.00,0.00,VWS V14.01,2013-07-11 02:12:00,
2013-07-10 21:17:00,71.5,60.8,29.98,NW,323,0.0,0.0,69,0.00,,---,0.00,0.00,VWS V14.01,2013-07-11 02:17:00,
2013-07-10 21:22:00,71.2,60.9,29.98,NW,323,0.0,0.0,70,0.00,,---,0.00,0.00,VWS V14.01,2013-07-11 02:22:00,
2013-07-10 21:27:00,70.8,60.9,29.99,NW,323,0.0,0.0,71,0.00,,---,0.00,0.00,VWS V14.01,2013-07-11 02:27:00,
2013-07-10 21:32:00,70.3,61.2,29.99,NW,323,0.0,0.0,73,0.00,,---,0.00,0.00,VWS V14.01,2013-07-11 02:32:00,
2013-07-10 21:37:00,70.0,62.1,29.99,NW,323,0.0,0.0,76,0.00,,---,0.00,0.00,VWS V14.01,2013-07-11 02:37:00,
2013-07-10 21:42:00,69.6,61.3,29.99,NW,323,0.0,0.0,75,0.00,,---,0.00,0.00,VWS V14.01,2013-07-11 02:42:00,
2013-07-10 21:47:00,69.2,61.7,29.99,NW,323,0.0,0.0,77,0.00,,---,0.00,0.00,VWS V14.01,2013-07-11 02:47:00,
2013-07-10 21:52:00,68.8,61.7,30.00,NW,323,0.0,0.0,78,0.00,,---,0.00,0.00,VWS V14.01,2013-07-11 02:52:00,
2013-07-10 21:57:00,68.5,61.4,29.99,NW,323,0.0,0.0,78,0.00,,---,0.00,0.00,VWS V14.01,2013-07-11 02:57:00,
2013-07-10 22:02:00,68.3,61.2,30.00,NW,323,0.0,0.0,78,0.00,,---,0.00,0.00,VWS V14.01,2013-07-11 03:02:00,
2013-07-10 22:07:00,67.9,61.2,30.00,NW,323,0.0,0.0,79,0.00,,---,0.00,0.00,VWS V14.01,2013-07-11 03:07:00,
2013-07-10 22:12:00,67.6,60.9,30.00,NW,323,0.0,0.0,79,0.00,,---,0.00,0.00,VWS V14.01,2013-07-11 03:12:00,
2013-07-10 22:17:00,67.2,60.8,30.00,NW,323,0.0,0.0,80,0.00,,---,0.00,0.00,VWS V14.01,2013-07-11 03:17:00,
2013-07-10 22:22:00,66.8,60.8,30.00,NW,323,0.0,0.0,81,0.00,,---,0.00,0.00,VWS V14.01,2013-07-11 03:22:00,
2013-07-10 22:27:00,66.5,60.5,30.01,NW,323,0.0,0.0,81,0.00,,---,0.00,0.00,VWS V14.01,2013-07-11 03:27:00,
2013-07-10 22:32:00,66.2,60.2,30.01,NW,323,0.0,0.0,81,0.00,,---,0.00,0.00,VWS V14.01,2013-07-11 03:32:00,
2013-07-10 22:37:00,66.0,60.0,30.01,NW,323,0.0,0.0,81,0.00,,---,0.00,0.00,VWS V14.01,2013-07-11 03:37:00,
2013-07-10 22:42:00,65.8,60.5,30.01,NW,323,0.0,0.0,83,0.00,,---,0.00,0.00,VWS V14.01,2013-07-11 03:42:00,
2013-07-10 22:47:00,65.6,60.6,30.01,NW,323,0.0,0.0,84,0.00,,---,0.00,0.00,VWS V14.01,2013-07-11 03:47:00,
2013-07-10 22:52:00,65.4,60.5,30.01,NW,323,0.0,0.0,84,0.00,,---,0.00,0.00,VWS V14.01,2013-07-11 03:52:00,
2013-07-10 22:57:00,65.2,60.6,30.01,NW,323,0.0,0.0,85,0.00,,---,0.00,0.00,VWS V14.01,2013-07-11 03:57:00,
2013-07-10 23:01:00,65.1,60.5,30.01,NW,323,0.0,0.0,85,0.00,,---,0.00,0.00,VWS V14.01,2013-07-11 04:01:00,
2013-07-10 23:06:00,64.9,60.6,30.01,NW,323,0.0,0.0,86,0.00,,---,0.00,0.00,VWS V14.01,2013-07-11 04:06:00,
2013-07-10 23:11:00,64.7,60.4,30.01,NW,323,0.0,0.0,86,0.00,,---,0.00,0.00,VWS V14.01,2013-07-11 04:11:00,
2013-07-10 23:16:00,64.5,60.2,30.01,NW,323,0.0,0.0,86,0.00,,---,0.00,0.00,VWS V14.01,2013-07-11 04:16:00,
2013-07-10 23:21:00,64.3,60.0,30.02,NW,323,0.0,0.0,86,0.00,,---,0.00,0.00,VWS V14.01,2013-07-11 04:21:00,
2013-07-10 23:26:00,64.1,60.2,30.02,NW,323,0.0,0.0,87,0.00,,---,0.00,0.00,VWS V14.01,2013-07-11 04:26:00,
2013-07-10 23:31:00,63.9,60.0,30.02,NW,323,0.0,0.0,87,0.00,,---,0.00,0.00,VWS V14.01,2013-07-11 04:31:00,
2013-07-10 23:36:00,63.7,59.8,30.02,NW,323,0.0,0.0,87,0.00,,---,0.00,0.00,VWS V14.01,2013-07-11 04:36:00,
2013-07-10 23:41:00,63.4,59.2,30.02,NW,323,0.0,0.0,86,0.00,,---,0.00,0.00,VWS V14.01,2013-07-11 04:41:00,
2013-07-10 23:46:00,63.1,58.8,30.02,NW,323,0.0,0.0,86,0.00,,---,0.00,0.00,VWS V14.01,2013-07-11 04:46:00,
2013-07-10 23:51:00,62.9,58.7,30.02,NW,323,0.0,0.0,86,0.00,,---,0.00,0.00,VWS V14.01,2013-07-11 04:51:00,
2013-07-10 23:56:00,62.7,58.8,30.02,NW,323,0.0,0.0,87,0.00,,---,0.00,0.00,VWS V14.01,2013-07-11 04:56:00,